RH
51 54 56 57 61 64 66 66 68 72 75 75 83 92 90 87 84 82 73 70 62 53 52 52 49 43 41 41 40 36 33 29
51 54 55 57 60 66 68 67 69 72 76 81 84 95 89 83 83 78 72 63 54 51 49 48 46 42 45 44 38 36 31 29
51 53 56 60 62 64 64 67 68 70 77 92 95 93 81 84 83 77 68 60 54 49 47 45 45 49 43 39 37 34 31 34
53 56 59 60 62 64 65 64 68 79 91 95 91 81 80 80 73 62 64 59 54 49 47 50 51 44 39 37 32 30 32 37
56 57 56 58 60 60 65 70 76 82 80 81 86 81 76 70 67 67 62 59 56 54 47 45 46 39 37 32 32 33 38 44
55 53 55 53 58 61 70 72 72 70 75 73 75 75 74 75 68 62 58 54 53 52 46 44 39 38 34 32 32 37 45 51
48 49 48 53 58 64 68 65 65 69 74 77 73 73 70 63 62 58 53 50 47 43 41 38 36 35 33 33 34 45 50 54
45 45 49 53 59 58 56 59 67 74 77 74 73 67 65 60 57 55 52 44 43 39 37 34 30 32 35 32 40 44 49 54
43 45 50 52 53 54 59 65 73 76 73 71 67 61 57 59 52 46 44 43 38 37 35 30 31 35 33 34 39 44 48 55
43 46 48 49 54 60 63 72 74 73 73 66 63 60 56 48 41 38 37 35 35 34 31 29 30 32 31 35 40 42 48 56
43 46 49 52 58 63 70 73 71 72 68 65 62 58 48 41 36 28 28 29 30 32 31 30 29 30 32 36 39 41 50 58
44 49 52 57 64 68 71 72 72 71 69 63 58 47 40 34 27 24 23 25 27 29 29 29 30 30 31 34 34 39 48 72
46 51 55 61 67 70 71 73 74 73 67 63 48 39 29 24 23 23 24 26 27 28 29 31 31 30 31 33 30 37 63 84
50 54 57 61 69 72 73 75 75 71 63 46 35 25 21 22 22 23 25 28 30 31 31 33 31 31 32 31 31 49 77 92
54 57 59 64 70 74 75 76 73 63 44 31 27 20 19 21 23 25 28 32 35 35 34 33 31 32 32 26 35 61 89 95
56 59 62 67 73 75 75 75 63 47 32 26 21 19 20 22 24 27 31 36 39 41 36 30 30 31 27 29 43 81 91 96
59 61 64 71 75 76 76 61 49 33 26 23 19 20 22 23 25 31 36 40 44 43 35 29 29 30 23 29 57 91 96 98
58 61 66 72 71 72 61 48 35 26 23 20 20 21 23 24 28 33 36 41 46 46 34 29 29 28 19 25 80 95 98 99
59 63 68 67 67 61 47 35 26 23 20 21 20 21 23 25 31 35 36 42 49 46 34 30 30 27 19 33 81 97 98 98